Погода в Андреевке

Украина / Запорожская область     47°06′09″N   36°35′03″E
темп.,
°C
ветер,
м/с
пор.,
м/с
влажн.,
%
обл.,
%
осадки,
мм/ч
давл.,
гПа
погр.,
м
16 июня, ср
ср1600:00+17ю12925 2.3 100920
03:00+16ю229199 2.3 101014
06:00+17ююз0192100 0.4 101037
09:00+19зюз3479100 0.4 1011373
12:00+22ю235894 0.0 1011949
15:00+24ююв23473 0.0 10101250
18:00+24ююв11444 0.0 10101020
21:00+20с3358100 0.1 101035
17 июня, чт
чт1700:00+17всв41094100 1.7 1010350
03:00+18ссв91979100 8.9 1008576
06:00+18св71594100 9.8 1009772
09:00+21всв81383100 13.0 1009986
12:00+21в91386100 1.9 10111101
15:00+21в91281100 2.8 1011977
18:00+19в5889100 0.4 1012544
21:00+18всв5996100 1.3 1013318
18 июня, пт
пт1800:00+17всв5109651 0.3 1014342
03:00+18в5109392 1.1 1014468
06:00+18вюв61188100 0.6 1015556
09:00+21вюв7975100 1.1 10171083
12:00+23вюв676196 0.0 10181253
15:00+24в665634 0.1 10181642
18:00+22всв677433 0.4 1019978
21:00+19всв510862 0.5 1019404
19 июня, сб
сб1900:00+17св4109399 0.0 1019264
03:00+16св512835 0.0 1018388
06:00+16всв611820 0.0 1018395
09:00+20в79730 0.0 1018634
12:00+25в79590 0.0 1017917
15:00+26в911520 0.0 10171274
18:00+25в913600 0.0 10161197
21:00+21всв816666 0.0 1016542
20 июня, вс
вс2000:00+21всв8185533 0.0 1015577
03:00+19всв817559 0.1 1015478
06:00+18всв817610 0.0 1015485
09:00+21в81460100 1.6 1015614
12:00+23в8125719 2.6 1014666
15:00+25в911540 2.6 10141088
18:00+26в610590 0.0 10131111
21:00+22св36770 0.0 101394